Weather History for Manhattan, KS

Change the Weather History Date:

Thursday, April 24, 2014

  Actual Average Record
Temperature  
Mean Temperature 58 °F 57 °F  
Max Temperature 73 °F 69 °F 91 °F (2012)
Min Temperature 42 °F 44 °F 24 °F (2013)
Degree Days  
Heating Degree Days 7 9  
Month to date heating degree days 290 298  
Since 1 July heating degree days 5571 5134  
Cooling Degree Days 0 1  
Month to date cooling degree days 22 13  
Year to date cooling degree days 22 15  
Growing Degree Days 10 (Base 50)    
Moisture  
Dew Point 51 °F    
Average Humidity 69    
Maximum Humidity 96    
Minimum Humidity 42    
Precipitation  
Precipitation 0.89 in 0.11 in 0.89 in (2014)
Month to date precipitation 1.56 2.01  
Year to date precipitation 3.31 5.93  
Sea Level Pressure  
Sea Level Pressure 29.69 in    
Wind  
Wind Speed 7 mph (NNW)    
Max Wind Speed 23 mph    
Max Gust Speed 32 mph    
Visibility 7 miles    
Events Rain , Thunderstorm    
T = Trace of Precipitation, MM = Missing Value Source: NWS Daily Summary

Daily Weather History Graph

Daily Weather History Graph

Search for Another Location

Airport:

Trip Planner

Search our weather history database for the weather conditions in past years. The results will help you decide how hot, cold, wet, or windy it might be!

Date:

Astronomy

Apr. 24, 2014 Rise Set
Actual Time 6:37 AM CDT 8:12 PM CDT
Civil Twilight 6:09 AM CDT 8:41 PM CDT
Nautical Twilight 5:34 AM CDT 9:15 PM CDT
Astronomical Twilight 4:58 AM CDT 9:51 PM CDT
Moon 3:46 AM CDT (4/24) 3:31 PM CDT (4/24)
Length of Visible Light 14h 32m
Length of Day
13h 35m
Waning Crescent, 24% of the Moon is Illuminated
Apr 24
Waning Crescent
Apr 29
New
May 6
First Quarter
May 14
Full
May 21
Last Quarter

Hourly Weather History & Observations

Time (CDT) Temp. Dew Point Humidity Pressure Visibility Wind Dir Wind Speed Gust Speed Precip Events Conditions
12:52 AM 73.0 °F 54.0 °F 51% 29.46 in 10.0 mi South 20.7 mph 33.4 mph N/A   Clear
1:52 AM 73.0 °F 55.0 °F 53% 29.48 in 10.0 mi SSW 17.3 mph 24.2 mph N/A   Clear
2:09 AM 73.0 °F 55.0 °F 53% 29.58 in 10.0 mi WNW 11.5 mph 23.0 mph N/A   Mostly Cloudy
2:17 AM 73.0 °F 54.0 °F 51% 29.59 in 10.0 mi WNW 11.5 mph 18.4 mph N/A   Mostly Cloudy
2:52 AM 73.0 °F 51.1 °F 46% 29.58 in 10.0 mi West 13.8 mph 25.3 mph N/A   Mostly Cloudy
3:41 AM 71.1 °F 51.1 °F 49% 29.62 in 10.0 mi NW 10.4 mph - N/A Thunderstorm Overcast
3:52 AM 66.0 °F 50.0 °F 56% 29.60 in 10.0 mi Variable 6.9 mph - N/A   Overcast
4:31 AM 59.0 °F 52.0 °F 78% 29.61 in 10.0 mi North 3.5 mph - 0.00 in Rain , Thunderstorm Light Rain
4:44 AM 57.9 °F 54.0 °F 87% 29.61 in 4.0 mi ENE 5.8 mph - 0.06 in Rain , Thunderstorm Heavy Thunderstorms and Rain
4:52 AM 57.9 °F 54.0 °F 87% 29.59 in 7.0 mi NE 5.8 mph - 0.07 in Rain , Thunderstorm Light Thunderstorms and Rain
4:59 AM 57.9 °F 54.0 °F 87% 29.60 in 9.0 mi NE 8.1 mph - 0.00 in Rain , Thunderstorm Light Rain
5:08 AM 57.0 °F 54.0 °F 89% 29.60 in 3.0 mi North 4.6 mph - 0.09 in Rain , Thunderstorm Heavy Thunderstorms and Rain
5:15 AM 57.0 °F 55.0 °F 93% 29.64 in 2.0 mi NW 11.5 mph 17.3 mph 0.14 in Rain , Thunderstorm Heavy Thunderstorms and Rain
5:28 AM 54.0 °F 54.0 °F 100% 29.67 in 1.2 mi Variable 6.9 mph 21.9 mph 0.37 in Rain , Thunderstorm Heavy Rain
5:40 AM 55.0 °F 54.0 °F 96% 29.65 in 2.5 mi North 6.9 mph - 0.43 in Rain , Thunderstorm Thunderstorms and Rain
5:48 AM 55.4 °F - N/A% 29.64 in 4.0 mi NNE 9.2 mph - 0.44 in Rain , Thunderstorm Light Thunderstorms and Rain
5:52 AM 55.9 °F - N/A% 29.62 in 4.0 mi NNE 8.1 mph - 0.45 in Rain , Thunderstorm Thunderstorms and Rain
5:58 AM 55.9 °F - N/A% 29.64 in 6.0 mi NNE 5.8 mph - 0.00 in Rain Light Rain
6:52 AM 55.0 °F - N/A% 29.60 in 9.0 mi Calm Calm - 0.00 in   Partly Cloudy
7:52 AM 55.0 °F 55.0 °F 100% 29.63 in 7.0 mi WNW 5.8 mph - 0.00 in Rain Light Rain
8:07 AM 55.9 °F 55.0 °F 97% 29.68 in 8.0 mi WSW 5.8 mph - 0.00 in   Mostly Cloudy
8:28 AM 57.2 °F 55.4 °F 94% 29.68 in 8.0 mi West 4.6 mph - N/A   Overcast
8:35 AM 57.0 °F 55.9 °F 96% 29.68 in 8.0 mi WNW 3.5 mph - 0.00 in   Overcast
8:52 AM 57.0 °F 55.9 °F 96% 29.66 in 8.0 mi NW 3.5 mph - 0.00 in   Overcast
9:06 AM 57.0 °F 55.9 °F 96% 29.68 in 7.0 mi NW 4.6 mph - N/A   Overcast
9:49 AM 57.2 °F 57.2 °F 100% 29.68 in 2.0 mi Variable 5.8 mph - 0.00 in Rain Light Rain
9:52 AM 57.0 °F 57.0 °F 100% 29.66 in 3.0 mi North 5.8 mph - 0.00 in Rain Light Rain
10:15 AM 57.0 °F 55.9 °F 96% 29.72 in 8.0 mi West 10.4 mph - 0.00 in Rain , Thunderstorm Light Rain
10:23 AM 57.0 °F 55.9 °F 96% 29.74 in 2.5 mi West 10.4 mph - 0.11 in Rain , Thunderstorm Light Rain
10:27 AM 57.0 °F 55.9 °F 96% 29.75 in 1.0 mi West 12.7 mph 18.4 mph 0.18 in Rain , Thunderstorm Heavy Thunderstorms and Rain
10:38 AM 55.0 °F 54.0 °F 96% 29.78 in 2.5 mi WNW 6.9 mph 19.6 mph 0.22 in Rain , Thunderstorm Thunderstorms and Rain
10:43 AM 55.0 °F 54.0 °F 96% 29.78 in 3.0 mi WNW 9.2 mph - 0.24 in Rain , Thunderstorm Thunderstorms and Rain
10:48 AM 55.4 °F 53.6 °F 94% 29.77 in 2.5 mi NNW 10.4 mph 18.4 mph 0.26 in Rain Rain
10:52 AM 54.0 °F 53.1 °F 97% 29.75 in 2.5 mi North 10.4 mph 18.4 mph 0.27 in Rain Rain
10:59 AM 54.0 °F 52.0 °F 93% 29.75 in 3.0 mi North 15.0 mph 26.5 mph 0.02 in Rain Rain
11:09 AM 53.1 °F 52.0 °F 96% 29.75 in 2.5 mi North 12.7 mph 21.9 mph 0.07 in Rain Heavy Rain
11:20 AM 54.0 °F 51.1 °F 90% 29.69 in 4.0 mi NNE 15.0 mph 31.1 mph 0.09 in Rain Rain
11:52 AM 54.0 °F 51.1 °F 90% 29.67 in 10.0 mi North 12.7 mph 25.3 mph 0.10 in Rain Light Rain
12:52 PM 57.9 °F 50.0 °F 75% 29.73 in 10.0 mi NNW 10.4 mph 23.0 mph 0.00 in   Overcast
1:52 PM 57.9 °F 46.9 °F 67% 29.73 in 10.0 mi NNW 11.5 mph 23.0 mph N/A   Overcast
2:52 PM 60.1 °F 46.9 °F 62% 29.75 in 10.0 mi NNW 8.1 mph 21.9 mph 0.00 in   Overcast
3:52 PM 63.0 °F 42.1 °F 46% 29.77 in 10.0 mi North 10.4 mph 21.9 mph N/A   Mostly Cloudy
4:52 PM 63.0 °F 43.0 °F 48% 29.79 in 10.0 mi North 8.1 mph 17.3 mph N/A   Clear
5:52 PM 66.9 °F 42.1 °F 40% 29.81 in 10.0 mi North 9.2 mph 18.4 mph N/A   Clear
6:52 PM 66.0 °F 44.1 °F 45% 29.80 in 10.0 mi NNE 8.1 mph - N/A   Clear
7:52 PM 60.1 °F 44.1 °F 55% 29.81 in 10.0 mi Calm Calm - N/A   Clear
8:52 PM 55.4 °F 42.8 °F 63% 29.83 in 10.0 mi SW 3.5 mph - N/A   Clear
9:52 PM 48.0 °F 44.1 °F 86% 29.86 in 10.0 mi Calm Calm - N/A   Clear
10:52 PM 46.0 °F 43.0 °F 89% 29.87 in 10.0 mi Calm Calm - N/A   Clear
11:52 PM 42.1 °F 41.0 °F 96% 29.88 in 10.0 mi Calm Calm - N/A   Clear